Flag for Switzerland Weather past 2 weeks in Zürich, Zurich, Switzerland

Now
62 °F

Cool.


Feels Like: 62 °F
Forecast: 62 / 77 °F
Wind: 8 mph from West

Location: Zurich Town / Ville.

Current Time: Jul 22, 2014 at 11:25:53 AM

Latest Report: Jul 22, 2014 at 10:00 AM


Visibility: N/A

Pressure: 29.91 "Hg

Humidity: 96%

Dew point: 61 °F

Location of ZürichLocation

Historic Weather in Zürich — Graph

°F

Zürich temperature yesterday

Maximum temperature yesterday: 66 °F (at 2:00 PM)
Minimum temperature yesterday: 58 °F (at 2:00 AM)
Average temperature yesterday: 61 °F

Past Weeks' High & Low Weather Summary

 TemperatureHumidityPressure
High87 °F (Jul 19, 6:00 PM)98% (Jul 11, 12:00 AM)30.19 "Hg (Jul 11, 12:00 AM)
Low49 °F (Jul 10, 2:00 AM)25% (Jul 18, 3:00 PM)29.78 "Hg (Jul 20, 3:00 AM)
Average64 °F78%29.97 "Hg
* Reported Jul 7 10:00 AM — Jul 22 10:00 AM, Zürich, Weather by CustomWeather, © 2014

Note: Actual official high and low records may vary slightly from our data, if they occured in-between our weather recording intervals... More about our weather records

Advertising

Zürich weather history for previous 24 hours

 ConditionsComfort  
Time TempWeatherWind HumidityBarometerVisibility
10:00 AM
Jul 22
62 °FCool.8 mph96%29.91 "HgN/A
9:00 AM61 °FCool.5 mph96%29.90 "HgN/A
8:00 AM61 °FOvercast.8 mph97%29.90 "HgN/A
7:00 AM61 °FCool.6 mph98%29.90 "HgN/A
6:00 AM61 °FCool.3 mph97%29.90 "HgN/A
5:00 AM61 °FCool.3 mph98%29.91 "HgN/A
4:00 AM61 °FCool.2 mph97%29.90 "HgN/A
3:00 AM60 °FCool.2 mph97%29.91 "HgN/A
2:00 AM60 °FCool.2 mph97%29.93 "HgN/A
1:00 AM60 °FCool.5 mph97%29.94 "HgN/A
12:00 AM60 °FCool.3 mph96%29.94 "HgN/A
11:00 PM
Jul 21
60 °FCool.2 mph97%29.95 "HgN/A
10:00 PM60 °FCool.3 mph97%29.95 "HgN/A
9:00 PM61 °FCool.3 mph94%29.94 "HgN/A
8:00 PM60 °FOvercast.5 mph97%29.94 "HgN/A
7:00 PM62 °FCool.5 mph90%29.93 "HgN/A
6:00 PM64 °FMild.5 mph78%29.92 "HgN/A
5:00 PM66 °FMild.7 mph73%29.91 "HgN/A
4:00 PM65 °FMild.6 mph73%29.91 "HgN/A
3:00 PM66 °FMild.8 mph73%29.91 "HgN/A
2:00 PM66 °FMild.6 mph75%29.91 "HgN/A
1:00 PM64 °FMild.5 mph77%29.93 "HgN/A
12:00 PM64 °FMild.6 mph79%29.93 "HgN/A
11:00 AM63 °FMild.6 mph84%29.93 "HgN/A
Weather by CustomWeather, © 2014

See weather overviewHow to use our weather pages